Home   Weather   Selkirk   Past weeks
Flag for Canada

Past Weather in Selkirk, Manitoba, Canada — Yesterday and Last 2 Weeks

Now
4 °F

Frigid.


Feels Like: -7 °F
Forecast: -4 / 8 °F
Wind: 6 mph from Northeast

Location: Winnipeg The Forks Man

Current Time: Nov 19, 2018 at 2:01:05 am

Latest Report: Nov 19, 2018 at 1:00 am


Visibility: N/A

Pressure: 30.32 "Hg

Humidity: 71%

Dew Point: -3 °F

Location of SelkirkLocation

Past Weather in Selkirk — Graph

°F

Selkirk Temperature Yesterday

Maximum temperature yesterday: 17 °F (at 11:00 am)
Minimum temperature yesterday: 6 °F (at 11:00 pm)
Average temperature yesterday: 12 °F

High & Low Weather Summary for the Past Weeks

 TemperatureHumidityPressure
High39 °F (Nov 4, 2:00 pm)94% (Nov 4, 6:00 am)30.59 "Hg (Nov 4, 6:00 am)
Low1 °F (Nov 17, 8:00 am)54% (Nov 11, 4:00 pm)29.65 "Hg (Nov 6, 12:00 am)
Average20 °F76%30.18 "Hg
* Reported Nov 4 1:00 am — Nov 19 12:00 am, Selkirk. Weather by CustomWeather, © 2018

Note: Actual official high and low records may vary slightly from our data, if they occured in-between our weather recording intervals... More about our weather records

Advertising

Selkirk Weather History for the Previous 24 Hours

Scroll right to see more
 ConditionsComfort  
Time TempWeatherWind HumidityBarometerVisibility
12:00 am
Mon, Nov 19
4 °FFrigid.6 mph70%30.29 "HgN/A
11:00 pm
Sun, Nov 18
6 °FFrigid.7 mph68%30.27 "HgN/A
10:00 pm7 °FFrigid.7 mph69%30.25 "HgN/A
9:00 pm8 °FFrigid.5 mph74%30.23 "HgN/A
8:00 pm8 °FFrigid.5 mph72%30.21 "HgN/A
7:00 pm9 °FFrigid.5 mph74%30.21 "HgN/A
6:00 pm9 °FFrigid.2 mph72%30.20 "HgN/A
5:00 pm10 °FFrigid.5 mph70%30.17 "HgN/A
4:00 pm12 °FCold.6 mph67%30.15 "HgN/A
3:00 pm13 °FCold.5 mph65%30.13 "HgN/A
2:00 pm14 °FCold.6 mph70%30.13 "HgN/A
1:00 pm14 °FCold.6 mph79%30.13 "HgN/A
12:00 pm15 °FCold.5 mph75%30.12 "HgN/A
11:00 am17 °FCold.3 mph72%30.12 "HgN/A
10:00 am15 °FCold.5 mph77%30.12 "HgN/A
9:00 am14 °FCold.3 mph76%30.12 "HgN/A
8:00 am14 °FCold.2 mph78%30.10 "HgN/A
7:00 am14 °FCold.2 mph77%30.11 "HgN/A
6:00 am14 °FCold.1 mph77%30.11 "HgN/A
5:00 am14 °FCold.2 mph76%30.10 "HgN/A
4:00 am13 °FCold.3 mph78%30.11 "HgN/A
3:00 am13 °FCold.2 mph76%30.13 "HgN/A
2:00 am13 °FCold.5 mph81%30.13 "HgN/A
Weather by CustomWeather, © 2018

See weather overview